Home   Weather   Hayward   Past weeks

Flag for USA Past Weather in Hayward, California, USA — Yesterday and Last 2 Weeks

Now
58 °F

Overcast.


Feels Like: 58 °F
Forecast: 58 / 64 °F
Wind: 5 mph from South

Location: Hayward Air Terminal

Current Time: Dec 9, 2016 at 1:50:31 am

Latest Report: Dec 9, 2016 at 12:54 am


Visibility: 10 mi

Pressure: 30.22 "Hg

Humidity: 84%

Dew Point: 53 °F

Location of HaywardLocation

Past Weather in Hayward — Graph

°F

Hayward Temperature Yesterday

Maximum temperature yesterday: 62 °F (at 12:54 pm)
Minimum temperature yesterday: 47 °F (at 12:54 am)
Average temperature yesterday: 56 °F

High & Low Weather Summary for the Past Weeks

 TemperatureHumidityPressure
High64 °F (Dec 2, 2:54 pm)87% (Dec 8, 9:58 pm)30.38 "Hg (Dec 8, 9:58 pm)
Low41 °F (Dec 6, 6:54 am)20% (Dec 2, 12:54 pm)29.81 "Hg (Nov 26, 4:54 am)
Average52 °F65%30.13 "Hg
* Reported Nov 23 11:54 pm — Dec 8 11:54 pm, Hayward, Weather by CustomWeather, © 2016

Note: Actual official high and low records may vary slightly from our data, if they occured in-between our weather recording intervals... More about our weather records

Advertising

Hayward Weather History for the Previous 24 Hours

Scroll right to see more
 ConditionsComfort  
Time TempWeatherWind HumidityBarometerVisibility
11:54 pm
Thu, Dec 8
57 °FOvercast.5 mph83%30.23 "Hg10 mi
10:54 pm58 °FOvercast.No wind87%30.23 "Hg10 mi
9:58 pm58 °FLight rain. Fog.3 mph87%30.18 "Hg3 mi
8:54 pm59 °FOvercast.7 mph84%30.20 "Hg10 mi
7:54 pm59 °FLight rain. Low clouds.3 mph84%30.19 "Hg2 mi
6:54 pm59 °FLight rain. Overcast.3 mph81%30.17 "Hg4 mi
5:54 pm61 °FOvercast.8 mph75%30.16 "Hg10 mi
4:54 pm62 °FOvercast.9 mph73%30.15 "Hg10 mi
3:54 pm62 °FOvercast.10 mph73%30.14 "Hg10 mi
2:54 pm62 °FLight rain. Overcast.7 mph73%30.14 "Hg7 mi
1:54 pm62 °FLight rain. Overcast.12 mph70%30.14 "Hg5 mi
12:54 pm62 °FLight rain. Overcast.12 mph70%30.13 "Hg6 mi
11:54 am61 °FOvercast.13 mph72%30.14 "Hg3 mi
10:54 am60 °FOvercast.12 mph69%30.14 "Hg10 mi
9:54 am58 °FOvercast.14 mph75%30.14 "Hg10 mi
8:54 am56 °FOvercast.12 mph77%30.12 "Hg5 mi
8:01 am55 °FOvercast.10 mph80%30.08 "Hg5 mi
6:54 am53 °FLight rain. Fog.9 mph86%30.09 "Hg2 mi
5:54 am52 °FLight rain. Fog.8 mph86%30.08 "Hg3 mi
4:54 am48 °FLight rain. Fog.5 mph86%30.06 "Hg2 mi
3:54 am47 °FLight rain. Fog.9 mph86%30.07 "Hg2 mi
2:54 am47 °FRain. Low clouds.9 mph83%30.08 "Hg2 mi
1:54 am47 °FLight rain. Overcast.12 mph83%30.08 "Hg3 mi
Weather by CustomWeather, © 2016

See weather overviewHow to use our weather pages